GW1987 Weather Reports


Display with metric or nautical units.
time (UTC)temp
F
wind
direction
speed
MPH
gust
MPH
rain 1hr
in
rain 24hr
in
rain mn
in
humidity
%
barometer
mb
20260904034550 54 360 2.0 6.0 0.00 0.04 0.00 50 921.1
20260904034020 54 360 5.0 8.0 0.00 0.04 0.00 50 921.1
20260904033518 55 360 5.0 8.0 0.00 0.04 0.00 49 920.9
20260904033046 55 360 5.0 8.0 0.00 0.04 0.00 48 921.0
20260904032517 55 360 5.0 8.0 0.00 0.04 0.00 48 920.9
20260904032016 56 360 5.0 6.0 0.00 0.04 0.00 46 920.9
20260904031556 57 360 4.0 5.0 0.00 0.04 0.00 45 920.8
20260904031019 58 360 3.0 5.0 0.00 0.04 0.00 44 920.8
20260904030516 58 360 4.0 5.0 0.00 0.04 0.00 44 920.8
20260904030053 58 360 3.0 4.0 0.00 0.04 0.00 43 920.9
20260904025518 59 360 3.0 4.0 0.00 0.04 0.00 42 921.0
20260904025016 59 360 3.0 4.0 0.00 0.04 0.00 42 921.1
20260904024549 59 360 3.0 4.0 0.00 0.04 0.00 41 921.1
20260904024018 59 360 2.0 3.0 0.00 0.04 0.00 41 920.9
20260904023518 59 360 2.0 3.0 0.00 0.04 0.00 40 921.1
20260904023046 60 360 1.0 3.0 0.00 0.04 0.00 40 921.1
20260904022518 60 360 1.0 3.0 0.00 0.04 0.00 40 920.8
20260904022019 60 360 1.0 4.0 0.00 0.04 0.00 40 920.9
20260904021550 60 360 2.0 6.0 0.00 0.04 0.00 40 921.1
20260904021016 60 360 3.0 8.0 0.00 0.04 0.00 39 920.8
20260904020518 61 360 4.0 8.0 0.00 0.04 0.00 38 920.8
20260904020050 62 360 4.0 9.0 0.00 0.04 0.00 37 920.6
20260904015520 62 360 5.0 9.0 0.00 0.04 0.00 37 920.8
20260904015016 63 360 6.0 9.0 0.00 0.04 0.00 36 920.9
20260904014545 63 360 6.0 13.0 0.00 0.04 0.00 35 920.9
20260904014017 64 360 8.0 14.0 0.00 0.04 0.00 34 921.0
20260904013517 64 360 9.0 16.0 0.00 0.04 0.00 33 920.9
20260904013050 65 360 9.0 17.0 0.00 0.04 0.00 33 920.8
20260904012517 65 360 13.0 18.0 0.00 0.04 0.00 32 920.8
20260904012022 66 360 12.0 17.0 0.00 0.04 0.00 32 920.8
20260904011550 65 360 11.0 20.0 0.00 0.04 0.00 32 920.6
20260904011019 65 360 13.0 20.0 0.00 0.04 0.00 32 920.6
20260904010517 65 360 13.0 19.0 0.00 0.04 0.00 32 920.4
20260904010046 66 360 11.0 18.0 0.00 0.04 0.00 31 920.3
20260904005518 66 360 13.0 18.0 0.00 0.04 0.00 31 920.4
20260904005016 66 360 12.0 17.0 0.00 0.04 0.00 30 920.5
20260904004551 67 360 13.0 17.0 0.00 0.04 0.00 29 920.5
20260904004018 67 360 11.0 18.0 0.00 0.04 0.00 29 920.6
20260904003517 68 360 12.0 19.0 0.00 0.04 0.00 28 920.9
20260904003049 69 360 13.0 20.0 0.00 0.04 0.00 27 920.7
20260904002517 69 360 13.0 18.0 0.00 0.04 0.00 27 920.8
20260904002021 69 360 12.0 21.0 0.00 0.04 0.00 27 920.8
20260904001550 70 360 14.0 23.0 0.00 0.04 0.00 25 920.9
20260904001018 71 360 17.0 23.0 0.00 0.04 0.00 24 920.8
20260904000522 71 360 13.0 22.0 0.00 0.04 0.00 24 920.7
20260904000107 71 360 15.0 22.0 0.00 0.04 0.00 25 920.7
20260903235523 71 360 13.0 22.0 0.00 0.04 0.00 25 920.9
20260903235022 70 360 13.0 22.0 0.00 0.04 0.00 25 920.6
20260903234552 70 360 10.0 22.0 0.00 0.04 0.00 25 920.5
20260903234016 70 360 13.0 22.0 0.00 0.04 0.00 24 920.5
20260903233516 71 360 13.0 19.0 0.00 0.04 0.00 23 920.3
20260903233050 71 360 12.0 22.0 0.00 0.04 0.00 23 920.6
20260903232519 71 360 16.0 22.0 0.00 0.04 0.00 23 920.5
20260903232019 71 360 14.0 21.0 0.00 0.04 0.00 23 920.4
20260903231545 72 360 13.0 21.0 0.00 0.04 0.00 23 920.3
20260903231018 72 360 13.0 20.0 0.00 0.04 0.00 23 920.5
20260903230517 71 360 9.0 19.0 0.00 0.04 0.00 24 920.7
20260903230055 71 360 11.0 18.0 0.00 0.04 0.00 23 920.6
20260903225519 71 360 12.0 21.0 0.00 0.06 0.00 25 920.6
20260903225015 71 360 13.0 21.0 0.00 0.06 0.00 24 920.4
20260903224550 71 360 13.0 24.0 0.00 0.06 0.00 25 920.6
20260903224017 70 360 15.0 25.0 0.00 0.06 0.00 25 920.3
20260903223520 70 360 17.0 25.0 0.00 0.06 0.00 25 920.5
20260903223046 71 360 16.0 24.0 0.00 0.06 0.00 24 920.4
20260903222519 71 360 15.0 24.0 0.00 0.06 0.00 24 920.3
20260903222018 70 360 14.0 24.0 0.00 0.06 0.00 25 920.5
20260903221550 70 360 14.0 23.0 0.00 0.06 0.00 25 920.4
20260903221016 70 360 14.0 25.0 0.00 0.06 0.00 26 920.5
20260903220517 70 360 17.0 25.0 0.00 0.06 0.00 26 920.5
20260903220049 70 360 16.0 27.0 0.00 0.06 0.00 25 920.5
20260903215523 70 360 19.0 27.0 0.00 0.06 0.00 25 920.4
20260903215021 71 360 18.0 27.0 0.00 0.06 0.00 24 920.4
20260903214605 71 360 17.0 27.0 0.00 0.06 0.00 24 920.5
20260903214017 70 360 17.0 26.0 0.00 0.06 0.00 24 920.7
20260903213517 70 360 18.0 26.0 0.00 0.06 0.00 24 920.6
20260903213057 70 360 19.0 26.0 0.00 0.06 0.00 24 920.7
20260903212528 71 360 16.0 26.0 0.00 0.06 0.00 25 920.7
20260903212016 70 360 17.0 26.0 0.00 0.06 0.00 26 920.5
20260903211600 71 360 18.0 24.0 0.00 0.06 0.00 25 920.3
20260903211019 71 360 16.0 26.0 0.00 0.06 0.00 25 920.2
20260903210520 71 360 18.0 26.0 0.00 0.06 0.00 26 920.1
20260903210052 71 360 16.0 25.0 0.00 0.06 0.00 26 920.2
20260903205520 71 360 16.0 22.0 0.00 0.06 0.00 27 920.1
20260903205017 71 360 15.0 26.0 0.00 0.06 0.00 26 920.1
20260903204602 71 360 16.0 26.0 0.00 0.06 0.00 26 920.1
20260903204018 70 360 14.0 25.0 0.00 0.06 0.00 27 920.2
20260903203522 71 360 17.0 25.0 0.00 0.06 0.00 27 920.1
20260903203056 71 360 19.0 25.0 0.00 0.06 0.00 27 920.1
20260903202521 71 360 13.0 26.0 0.00 0.06 0.00 28 920.1
20260903202021 71 360 18.0 26.0 0.00 0.06 0.00 28 920.2
20260903201600 71 360 16.0 22.0 0.00 0.06 0.00 27 920.3
20260903201022 72 360 12.0 22.0 0.00 0.06 0.00 27 920.0
20260903200530 71 360 14.0 23.0 0.00 0.06 0.00 26 920.1
20260903195521 71 360 14.0 24.0 0.00 0.06 0.00 27 920.1
20260903195024 71 360 17.0 24.0 0.00 0.06 0.00 27 920.1
20260903194554 71 360 13.0 20.0 0.00 0.06 0.00 27 919.9
20260903194020 71 360 14.0 20.0 0.00 0.06 0.00 27 920.1
20260903193517 71 360 12.0 24.0 0.00 0.06 0.00 28 920.0
20260903193057 71 360 17.0 24.0 0.00 0.06 0.00 28 919.9
20260903192526 71 360 13.0 23.0 0.00 0.06 0.00 29 920.1
20260903192021 70 360 13.0 24.0 0.00 0.06 0.00 29 920.0
20260903191559 71 360 16.0 25.0 0.00 0.06 0.00 28 920.0
20260903191021 71 360 12.0 25.0 0.00 0.06 0.00 28 919.9
20260903190521 71 360 12.0 22.0 0.00 0.06 0.00 28 920.0
20260903185519 71 360 12.0 21.0 0.00 0.06 0.00 29 919.9
20260903185019 70 360 12.0 21.0 0.00 0.06 0.00 30 919.7
20260903184559 70 360 14.0 22.0 0.00 0.06 0.00 30 919.7
20260903184024 70 360 16.0 22.0 0.00 0.06 0.00 30 919.8
20260903183523 70 360 12.0 23.0 0.00 0.06 0.00 29 919.8
20260903183052 70 360 13.0 23.0 0.00 0.06 0.00 30 919.7
20260903182521 69 360 11.0 22.0 0.00 0.06 0.00 30 919.8
20260903182022 69 360 13.0 22.0 0.00 0.06 0.00 29 919.8
20260903181603 70 360 13.0 20.0 0.00 0.06 0.00 29 919.7
20260903181017 70 360 9.0 24.0 0.00 0.06 0.00 30 919.7
20260903180523 69 360 14.0 25.0 0.00 0.06 0.00 29 919.7
20260903180056 69 360 13.0 22.0 0.00 0.06 0.00 29 919.8
20260903175517 69 360 15.0 24.0 0.00 0.06 0.00 30 919.6
20260903175020 69 360 14.0 24.0 0.00 0.06 0.00 30 920.0
20260903174602 69 360 11.0 24.0 0.00 0.06 0.00 30 919.8
20260903174020 69 360 16.0 24.0 0.00 0.06 0.00 29 919.7
20260903173519 69 360 14.0 25.0 0.00 0.06 0.00 31 919.5
20260903173058 68 360 17.0 25.0 0.00 0.06 0.00 32 919.6
20260903172521 67 360 15.0 23.0 0.00 0.06 0.00 32 919.6
20260903172020 68 360 13.0 21.0 0.00 0.06 0.00 31 919.5
20260903171557 68 360 14.0 25.0 0.00 0.06 0.00 31 919.5
20260903171018 68 360 14.0 25.0 0.00 0.06 0.00 31 919.2
20260903170521 68 360 12.0 26.0 0.00 0.06 0.00 31 919.5
20260903170107 67 360 16.0 26.0 0.00 0.06 0.00 32 919.6
20260903165523 67 360 16.0 26.0 0.00 0.06 0.00 32 919.5
20260903165019 67 360 14.0 24.0 0.00 0.06 0.00 33 919.5
20260903164603 67 360 11.0 21.0 0.00 0.06 0.00 33 919.3
20260903164021 67 360 10.0 17.0 0.00 0.06 0.00 33 919.6
20260903163523 68 360 11.0 18.0 0.00 0.06 0.00 34 919.4
20260903163059 67 360 10.0 18.0 0.00 0.06 0.00 36 919.3
20260903162519 66 360 10.0 16.0 0.00 0.06 0.00 36 919.4
20260903162027 66 360 8.0 21.0 0.00 0.06 0.00 38 919.3
20260903161558 66 360 12.0 21.0 0.00 0.06 0.00 37 919.3
20260903161021 66 360 7.0 17.0 0.00 0.06 0.00 37 919.2
20260903160521 65 360 7.0 18.0 0.00 0.06 0.00 39 919.4
20260903160054 65 360 11.0 18.0 0.00 0.06 0.00 38 919.3
20260903155520 65 360 9.0 17.0 0.00 0.06 0.00 39 919.1
20260903155023 64 360 10.0 15.0 0.00 0.06 0.00 38 919.1
20260903154603 64 360 9.0 16.0 0.00 0.06 0.00 39 919.0
20260903154027 64 360 11.0 16.0 0.00 0.06 0.00 39 919.1
20260903153524 64 360 11.0 18.0 0.00 0.06 0.00 38 919.1
20260903153125 64 360 12.0 18.0 0.00 0.06 0.00 38 919.2
20260903152521 64 360 11.0 19.0 0.00 0.06 0.00 39 919.0
20260903152023 64 360 10.0 19.0 0.00 0.06 0.00 40 919.0
20260903151549 63 360 9.0 20.0 0.00 0.06 0.00 41 919.1
20260903151023 63 360 11.0 20.0 0.00 0.06 0.00 42 919.2
20260903150520 62 360 10.0 16.0 0.00 0.06 0.00 42 919.1
20260903150110 62 360 8.0 16.0 0.00 0.06 0.00 43 919.2
20260903145522 61 360 9.0 12.0 0.00 0.06 0.00 45 919.1
20260903145018 61 360 6.0 13.0 0.00 0.06 0.00 46 919.1
20260903144555 60 360 7.0 13.0 0.00 0.06 0.00 46 919.1
20260903144023 60 360 7.0 13.0 0.00 0.06 0.00 46 919.1
20260903143520 59 360 8.0 14.0 0.00 0.06 0.00 47 919.1
20260903143105 59 360 7.0 14.0 0.00 0.06 0.00 48 919.1
20260903142525 58 360 6.0 14.0 0.00 0.06 0.00 50 919.1
20260903142025 58 360 10.0 14.0 0.00 0.06 0.00 49 919.0
20260903141550 57 360 8.0 13.0 0.00 0.06 0.00 51 918.8
20260903141020 56 360 8.0 11.0 0.00 0.06 0.00 51 918.9
20260903140525 56 360 6.0 12.0 0.00 0.06 0.00 51 918.8
20260903140052 55 360 7.0 12.0 0.00 0.06 0.00 51 918.8
20260903135520 55 360 8.0 13.0 0.00 0.06 0.00 52 918.8
20260903135021 54 360 9.0 13.0 0.00 0.06 0.00 52 918.7
20260903134604 54 360 6.0 12.0 0.00 0.06 0.00 54 918.5
20260903134024 53 360 6.0 11.0 0.00 0.06 0.00 55 918.5
20260903133524 53 360 6.0 11.0 0.00 0.06 0.00 54 918.4
20260903133102 53 360 5.0 11.0 0.00 0.06 0.00 54 918.4
20260903132522 53 360 6.0 10.0 0.00 0.06 0.00 54 918.4
20260903132024 53 360 6.0 11.0 0.00 0.06 0.00 54 918.3
20260903131554 53 360 7.0 11.0 0.00 0.06 0.00 54 918.2
20260903131023 53 360 6.0 10.0 0.00 0.06 0.00 53 918.1
20260903130520 53 360 6.0 13.0 0.00 0.06 0.00 52 918.0
20260903125521 53 360 9.0 12.0 0.00 0.06 0.00 52 917.9
20260903125024 52 360 7.0 12.0 0.00 0.06 0.00 53 917.9
20260903124557 52 360 8.0 12.0 0.00 0.06 0.00 54 917.8
20260903124025 52 360 8.0 12.0 0.00 0.06 0.00 55 917.8
20260903123524 51 360 7.0 12.0 0.00 0.06 0.00 56 917.9
20260903123053 51 360 7.0 10.0 0.00 0.06 0.00 57 917.7
20260903122521 50 360 6.0 10.0 0.00 0.06 0.00 57 917.6
20260903122019 50 360 6.0 10.0 0.00 0.06 0.00 58 917.7
20260903121606 50 360 6.0 10.0 0.00 0.06 0.00 59 917.9
20260903121020 49 360 6.0 9.0 0.00 0.06 0.00 60 917.9
20260903120521 49 360 5.0 8.0 0.00 0.06 0.00 60 917.8
20260903120058 49 360 4.0 5.0 0.00 0.06 0.00 59 917.9
20260903115524 50 360 3.0 5.0 0.00 0.06 0.00 58 918.1
20260903115020 50 360 3.0 6.0 0.00 0.06 0.00 57 918.2
20260903114558 51 360 4.0 6.0 0.00 0.06 0.00 56 918.3
20260903114024 52 360 3.0 8.0 0.00 0.06 0.00 55 918.2
20260903113523 52 360 4.0 6.0 0.00 0.06 0.00 53 918.0
20260903113103 53 360 3.0 9.0 0.00 0.06 0.00 53 918.1
20260903112524 53 360 5.0 9.0 0.00 0.06 0.00 53 918.0
20260903112025 52 360 4.0 11.0 0.00 0.06 0.00 54 918.1
20260903111557 52 360 6.0 11.0 0.00 0.06 0.00 54 918.1
20260903111027 52 360 6.0 9.0 0.00 0.06 0.00 55 918.1
20260903110525 52 360 5.0 10.0 0.00 0.06 0.00 55 918.1
20260903110058 53 360 5.0 10.0 0.00 0.06 0.00 53 918.2
20260903105528 54 360 5.0 12.0 0.00 0.06 0.00 52 918.0
20260903105017 54 360 6.0 12.0 0.00 0.06 0.00 51 918.0
20260903104612 54 360 7.0 14.0 0.00 0.06 0.00 50 918.0
20260903104020 55 360 9.0 14.0 0.00 0.06 0.00 50 917.9
20260903103520 55 360 9.0 14.0 0.00 0.06 0.00 50 917.9
20260903103100 55 360 9.0 14.0 0.00 0.06 0.00 50 917.8
20260903102523 55 360 9.0 16.0 0.00 0.06 0.00 50 917.6
20260903102025 54 360 9.0 16.0 0.00 0.06 0.00 51 917.7
20260903101600 54 360 10.0 14.0 0.00 0.06 0.00 52 917.6
20260903101024 53 360 9.0 13.0 0.00 0.06 0.00 54 917.7
20260903100517 53 360 5.0 10.0 0.00 0.06 0.00 55 917.6
20260903100048 52 360 5.0 10.0 0.00 0.06 0.00 55 917.8
20260903095522 53 360 6.0 11.0 0.00 0.06 0.00 55 917.9
20260903095019 53 360 6.0 11.0 0.00 0.06 0.00 54 917.8
20260903094551 53 360 6.0 11.0 0.00 0.06 0.00 55 917.7
20260903094021 53 360 6.0 11.0 0.00 0.06 0.00 55 917.8
20260903093524 53 360 7.0 10.0 0.00 0.06 0.00 55 917.6
20260903093102 53 360 6.0 10.0 0.00 0.06 0.00 56 917.7
20260903092525 53 360 6.0 9.0 0.00 0.06 0.00 56 917.8
20260903092022 53 360 5.0 8.0 0.00 0.06 0.00 56 917.6
20260903091539 53 360 5.0 8.0 0.00 0.06 0.00 56 917.6
20260903091015 53 360 5.0 9.0 0.00 0.06 0.00 55 917.6
20260903090517 53 360 4.0 9.0 0.00 0.06 0.00 55 917.6
20260903090036 54 360 5.0 10.0 0.00 0.06 0.00 54 917.7
20260903085518 53 360 7.0 10.0 0.00 0.06 0.00 55 917.5
20260903085018 53 360 7.0 9.0 0.00 0.06 0.00 56 917.6
20260903084543 53 360 5.0 12.0 0.00 0.06 0.00 56 917.4
20260903084018 52 360 6.0 12.0 0.00 0.06 0.00 57 917.4
20260903083518 52 360 9.0 12.0 0.00 0.06 0.00 59 917.5
20260903083034 52 360 5.0 6.0 0.00 0.06 0.00 58 917.4
20260903082516 53 360 3.0 8.0 0.00 0.06 0.00 57 917.3
20260903082016 53 360 4.0 9.0 0.00 0.06 0.00 56 917.2
20260903081535 54 360 5.0 10.0 0.00 0.06 0.00 56 917.2
20260903081020 54 360 5.0 11.0 0.00 0.06 0.00 55 917.3
20260903080519 54 360 5.0 10.0 0.00 0.06 0.00 56 917.2
20260903080036 54 360 6.0 10.0 0.00 0.06 0.00 57 917.2
20260903075516 54 360 5.0 11.0 0.00 0.06 0.00 57 917.3
20260903075016 54 360 7.0 11.0 0.00 0.06 0.00 57 917.1
20260903074534 55 360 6.0 10.0 0.00 0.06 0.00 56 917.1
20260903074018 55 360 7.0 10.0 0.00 0.06 0.00 55 917.2
20260903073519 55 360 6.0 12.0 0.00 0.06 0.00 56 917.1
20260903073036 56 360 4.0 12.0 0.00 0.06 0.00 54 917.2
20260903072517 55 360 6.0 11.0 0.00 0.06 0.00 53 917.1
20260903072018 55 360 6.0 11.0 0.00 0.06 0.00 56 917.1
20260903071535 55 360 7.0 11.0 0.00 0.06 0.00 56 917.0
20260903071017 55 360 7.0 11.0 0.00 0.06 0.00 56 917.0
20260903070519 55 360 7.0 13.0 0.00 0.06 0.00 55 917.0
20260903070035 55 360 8.0 14.0 0.00 0.06 0.00 54 916.9
20260903065517 55 360 8.0 15.0 0.00 0.06 0.00 55 916.8
20260903065018 55 360 8.0 13.0 0.00 0.06 0.00 56 916.9
20260903064540 55 360 8.0 14.0 0.00 0.06 0.00 56 917.0
20260903064018 55 360 9.0 16.0 0.00 0.06 0.00 56 917.1
20260903063517 55 360 11.0 16.0 0.00 0.06 0.00 57 917.2
20260903063039 54 360 9.0 16.0 0.00 0.06 0.00 59 917.3
20260903062518 54 360 10.0 17.0 0.00 0.06 0.00 59 917.3
20260903062018 55 360 11.0 17.0 0.00 0.06 0.00 59 917.2
20260903061534 54 360 11.0 19.0 0.00 0.06 0.00 59 917.2
20260903061018 54 360 10.0 19.0 0.00 0.06 0.00 59 917.1
20260903060517 54 360 10.0 17.0 0.01 0.06 0.00 60 917.1
20260903060043 54 360 9.0 16.0 0.01 0.06 0.00 62 917.3
20260903055518 53 360 8.0 13.0 0.01 0.06 0.06 63 917.3
20260903055017 53 360 7.0 13.0 0.02 0.06 0.06 64 917.5
20260903054537 53 360 7.0 13.0 0.02 0.06 0.06 64 917.4
20260903054018 53 360 7.0 12.0 0.02 0.06 0.06 65 917.6
20260903053516 53 360 7.0 11.0 0.02 0.06 0.06 66 917.7
20260903053039 52 360 5.0 10.0 0.02 0.06 0.06 67 917.7
20260903052518 52 360 4.0 8.0 0.02 0.06 0.06 67 917.8
20260903052016 53 360 4.0 8.0 0.02 0.06 0.06 67 917.8
20260903051545 52 360 4.0 8.0 0.02 0.06 0.06 68 917.8
20260903051021 53 360 4.0 10.0 0.02 0.06 0.06 67 917.9
20260903050517 53 360 5.0 11.0 0.02 0.04 0.04 67 918.1
20260903050049 53 360 6.0 14.0 0.02 0.04 0.04 67 918.2
20260903045518 53 360 8.0 14.0 0.01 0.04 0.04 66 918.4
20260903045016 53 360 9.0 15.0 0.01 0.04 0.04 66 918.2
20260903044546 53 360 9.0 15.0 0.01 0.04 0.04 66 918.2
20260903044016 53 360 10.0 18.0 0.01 0.04 0.04 65 918.2
20260903043517 53 360 10.0 18.0 0.02 0.04 0.04 65 918.3
20260903043041 53 360 13.0 18.0 0.02 0.04 0.04 65 918.3
20260903042518 53 360 11.0 24.0 0.02 0.04 0.04 65 918.3
20260903042019 53 360 12.0 24.0 0.02 0.04 0.04 65 918.6
20260903041547 53 360 14.0 20.0 0.02 0.04 0.04 65 918.3
20260903041018 53 360 14.0 20.0 0.02 0.04 0.04 64 918.4
20260903040518 53 360 13.0 20.0 0.01 0.03 0.03 64 918.4
20260903040044 53 360 12.0 21.0 0.01 0.03 0.03 64 918.4
20260903035517 53 360 13.0 21.0 0.01 0.03 0.03 63 918.3
20260903035017 53 360 12.0 19.0 0.01 0.03 0.03 64 918.2